Location: Caltech
(34.1382°N, 118.1253°W)
Time: 22:09:46
(UTC-08:00)

Iridium 59 - Visible Passes

Search period start: 03 December 2016 00:00
Search period end: 13 December 2016 00:00
Orbit: 776 x 779 km, 86.4° (Epoch: 03 December)

Date Brightness Start Highest point End Pass type
(mag) Time Alt. Az. Time Alt. Az. Time Alt. Az.
05 Dec 7.5 06:14:43 10° NNE 06:18:50 23° E 06:22:56 10° SE visible
06 Dec 8.0 05:43:10 10° NE 05:45:02 12° ENE 05:46:52 10° E visible
07 Dec 7.7 19:40:16 10° SSW 19:40:17 10° SSW 19:40:17 10° SSW visible
08 Dec 6.9 06:14:19 10° NNE 06:19:02 34° E 06:23:45 10° SSE visible
08 Dec 7.0 19:06:35 10° S 19:07:51 18° S 19:07:51 18° S visible
09 Dec 7.7 05:41:48 10° NE 05:45:19 18° E 05:48:48 10° ESE visible
09 Dec 6.5 18:33:31 10° SSE 18:35:28 22° SE 18:35:28 22° SE visible
09 Dec 7.9 20:15:42 10° WSW 20:16:01 11° WSW 20:16:01 11° WSW visible
10 Dec 6.5 18:01:10 10° SE 18:03:08 18° ESE 18:03:08 18° ESE visible
10 Dec 6.8 19:40:47 10° SSW 19:43:41 27° WSW 19:43:41 27° WSW visible
11 Dec 6.0 06:14:08 10° N 06:19:13 51° E 06:24:16 10° SSE visible
11 Dec 6.9 17:30:42 10° E 17:30:52 10° E 17:30:52 10° E visible
11 Dec 5.3 19:06:42 10° S 19:11:25 64° WSW 19:11:25 64° WSW visible
12 Dec 7.2 05:41:11 10° NNE 05:45:33 26° E 05:49:53 10° SE visible
12 Dec 4.9 18:33:15 10° SSE 18:38:23 62° E 18:39:11 55° NE visible
12 Dec 7.9 20:17:35 10° W 20:19:30 12° WNW 20:19:44 12° WNW visible
